Home   Weather   Oakville   Past weeks
Flag for Canada

Past Weather in Oakville, Ontario, Canada — Yesterday and Last 2 Weeks

Now
46 °F

Cool.


Feels Like: 42 °F
Forecast: 51 / 42 °F
Wind: 7 mph from West

Location: Burlington Piers

Current Time: Oct 18, 2019 at 2:16:46 am

Latest Report: Oct 18, 2019 at 1:00 am


Visibility: N/A

Pressure: 29.88 "Hg

Humidity: 75%

Dew Point: 38 °F

Location of OakvilleLocation

Past Weather in Oakville — Graph

°F

Oakville Temperature Yesterday

Maximum temperature yesterday: 49 °F (at 1:00 pm)
Minimum temperature yesterday: 46 °F (at 4:00 am)
Average temperature yesterday: 48 °F

High & Low Weather Summary for the Past Weeks

 TemperatureHumidityPressure
High68 °F (Oct 6, 5:00 pm)98% (Oct 12, 7:00 am)30.43 "Hg (Oct 12, 7:00 am)
Low44 °F (Oct 15, 5:00 am)35% (Oct 13, 5:00 pm)29.47 "Hg (Oct 17, 12:00 am)
Average55 °F71%30.04 "Hg
* Reported Oct 3 1:00 am — Oct 18 1:00 am, Oakville. Weather by CustomWeather, © 2019

Note: Actual official high and low records may vary slightly from our data, if they occured in-between our weather recording intervals... More about our weather records

Advertising

Oakville Weather History for the Previous 24 Hours

Scroll right to see more
 ConditionsComfort  
Time TempWeatherWind HumidityBarometerVisibility
1:00 am
Fri, Oct 18
46 °FCool.7 mph75%29.88 "HgN/A
12:00 am46 °FCool.6 mph75%29.88 "HgN/A
11:00 pm
Thu, Oct 17
47 °FCool.6 mph71%29.86 "HgN/A
10:00 pm48 °FCool.12 mph66%29.84 "HgN/A
9:00 pm48 °FCool.14 mph65%29.83 "HgN/A
8:00 pm48 °FCool.14 mph67%29.82 "HgN/A
7:00 pm48 °FCool.16 mph69%29.79 "HgN/A
6:00 pm48 °FCool.14 mph71%29.76 "HgN/A
5:00 pm48 °FCool.15 mph71%29.74 "HgN/A
4:00 pm48 °FCool.13 mph71%29.72 "HgN/A
3:00 pm48 °FCool.15 mph70%29.70 "HgN/A
2:00 pm49 °FCool.17 mph68%29.69 "HgN/A
1:00 pm49 °FCool.20 mph63%29.67 "HgN/A
12:00 pm49 °FCool.20 mph68%29.65 "HgN/A
10:00 am48 °FCool.14 mph71%29.62 "HgN/A
9:00 am48 °FCool.17 mph71%29.60 "HgN/A
8:00 am48 °FCool.16 mph73%29.57 "HgN/A
7:00 am48 °FCool.16 mph69%29.55 "HgN/A
6:00 am47 °FCool.15 mph73%29.53 "HgN/A
5:00 am47 °FCool.15 mph79%29.51 "HgN/A
4:00 am46 °FCool.13 mph80%29.49 "HgN/A
3:00 am46 °FCool.9 mph79%29.49 "HgN/A
2:00 am48 °FCool.12 mph77%29.48 "HgN/A
Weather by CustomWeather, © 2019

See weather overview